Weather History for EBBE - February, 2013

Change the Weather History Date:

Monday, February 25, 2013

  Actual Average Record
Temperature  
Mean Temperature 32 °F -  
Max Temperature 33 °F 47 °F 53 °F (1997)
Min Temperature 30 °F 38 °F 24 °F (2001)
Degree Days  
Heating Degree Days 34    
Moisture  
Dew Point 33 °F    
Average Humidity 100    
Maximum Humidity 100    
Minimum Humidity 93    
Precipitation  
Precipitation 0.08 in - - ()
Sea Level Pressure  
Sea Level Pressure 30.16 in    
Wind  
Wind Speed 8 mph ()    
Max Wind Speed 12 mph    
Max Gust Speed -    
Visibility 0.8 miles    
Events Fog , Rain , Snow    
Averages and records for this station are not official NWS values.
T = Trace of Precipitation, MM = Missing Value Source: Averaged Metar Reports

Daily Weather History Graph

Daily Weather History Graph

Search for Another Location

Airport or City:

Trip Planner

Search our weather history database for the weather conditions in past years. The results will help you decide how hot, cold, wet, or windy it might be!

Date:

Astronomy

Feb. 25, 2013 Rise Set
Actual Time 7:33 AM CET 6:15 PM CET
Civil Twilight 7:00 AM CET 6:48 PM CET
Nautical Twilight 6:22 AM CET 7:26 PM CET
Astronomical Twilight 5:44 AM CET 8:04 PM CET
Moon 6:17 PM CET (2/25) 6:52 AM CET (2/25)
Length of Visible Light 11h 48m
Length of Day
10h 42m
Full, 100% of the Moon is Illuminated
Feb 25
Full
Feb 25
Full
Mar 4
Last Quarter
Mar 11
New
Mar 19
First Quarter

Hourly Weather History & Observations

Time (CET) Temp. Windchill Dew Point Humidity Pressure Visibility Wind Dir Wind Speed Gust Speed Precip Events Conditions
12:25 AM 32.0 °F 25.6 °F 30.2 °F 93% 30.09 in 1.8 mi North 6.9 mph - N/A   Mostly Cloudy
12:31 AM 32.0 °F 25.6 °F 32.0 °F 100% 30.09 in 1.7 mi North 6.9 mph - N/A   Mostly Cloudy
1:00 AM 31 °F - 31 °F 100% 30.12 in 2 mi North 6.7 mph - -   Mist
1:25 AM 32.0 °F 25.6 °F 32.0 °F 100% 30.09 in 1.4 mi North 6.9 mph - N/A   Mostly Cloudy
2:21 AM 32.0 °F 24.8 °F 32.0 °F 100% 30.09 in 1.2 mi North 8.1 mph - N/A   Mostly Cloudy
2:25 AM 32.0 °F 24.8 °F 32.0 °F 100% 30.09 in 1.2 mi North 8.1 mph - N/A   Mostly Cloudy
3:45 AM 32.0 °F 24.8 °F 32.0 °F 100% 30.09 in 0.6 mi North 8.1 mph - N/A   Mist
3:52 AM 32.0 °F 23.6 °F 32.0 °F 100% 30.09 in 0.6 mi North 10.4 mph - N/A Fog Light Freezing Fog
4:00 AM 31 °F - 31 °F 100% 30.13 in 1 mi North 8.9 mph - - Fog Fog
4:00 AM 32.0 °F 24.2 °F 32.0 °F 100% 30.09 in 0.4 mi North 9.2 mph - N/A Fog Light Freezing Fog
4:11 AM 32.0 °F 24.8 °F 32.0 °F 100% 30.09 in 0.5 mi North 8.1 mph - N/A Fog Light Freezing Fog
4:17 AM 32.0 °F 24.2 °F 32.0 °F 100% 30.09 in 0.6 mi North 9.2 mph - N/A Fog Light Freezing Fog
4:25 AM 32.0 °F 23.6 °F 32.0 °F 100% 30.09 in 0.6 mi North 10.4 mph - N/A Fog Light Freezing Fog
4:29 AM 32.0 °F 23.6 °F 32.0 °F 100% 30.09 in 0.6 mi North 10.4 mph - N/A Fog Drizzle
4:50 AM 32.0 °F 24.2 °F 32.0 °F 100% 30.09 in 0.6 mi North 9.2 mph - N/A   Mist
4:56 AM 32.0 °F 23.6 °F 32.0 °F 100% 30.09 in 0.4 mi North 10.4 mph - N/A Fog Light Freezing Fog
5:15 AM 32.0 °F 23.6 °F 32.0 °F 100% 30.09 in 0.3 mi North 10.4 mph - N/A Fog Drizzle
5:25 AM 32.0 °F 23.6 °F 32.0 °F 100% 30.09 in 0.3 mi North 10.4 mph - N/A Fog Drizzle
5:51 AM 32.0 °F 23.6 °F 32.0 °F 100% 30.09 in 0.4 mi NNE 10.4 mph - N/A Fog , Rain , Snow Light Rain
5:57 AM 32.0 °F 23.6 °F 32.0 °F 100% 30.09 in 0.6 mi NNE 10.4 mph - N/A Fog , Rain , Snow Light Rain
6:03 AM 32.0 °F 24.2 °F 32.0 °F 100% 30.09 in 0.6 mi NNE 9.2 mph - N/A Fog , Rain , Snow Light Rain
6:17 AM 32.0 °F 24.2 °F 32.0 °F 100% 30.12 in 0.7 mi NNE 9.2 mph - N/A Rain Rain
6:25 AM 32.0 °F 24.2 °F 32.0 °F 100% 30.12 in 0.9 mi NNE 9.2 mph - N/A Rain Rain
7:00 AM 32 °F - 32 °F 100% 30.15 in 1 mi NNE 8.9 mph - - Snow Light Snow
7:25 AM 32.0 °F 24.2 °F 32.0 °F 100% 30.12 in 0.9 mi NNE 9.2 mph - N/A Rain Rain
8:25 AM 32.0 °F 23.6 °F 32.0 °F 100% 30.15 in 0.6 mi NNE 10.4 mph - N/A   Mostly Cloudy
9:25 AM 32.0 °F 23.6 °F 32.0 °F 100% 30.15 in 0.4 mi North 10.4 mph - N/A Fog Fog
10:00 AM 32 °F - 32 °F 100% 30.19 in 0 mi North 11.2 mph - - Fog Partial Fog
10:25 AM 32.0 °F 23.6 °F 32.0 °F 100% 30.15 in 0.5 mi NNE 10.4 mph - N/A Fog Fog
11:25 AM 32.0 °F 24.2 °F 32.0 °F 100% 30.18 in 0.8 mi North 9.2 mph - N/A   Mostly Cloudy
11:58 AM 33.8 °F 26.4 °F 32.0 °F 93% 30.18 in 1.0 mi North 9.2 mph - N/A   Mostly Cloudy
12:08 PM 33.8 °F 26.4 °F 33.8 °F 100% 30.18 in 1.1 mi North 9.2 mph - N/A   Mostly Cloudy
12:25 PM 33.8 °F 26.4 °F 33.8 °F 100% 30.18 in 1.1 mi North 9.2 mph - N/A Snow Light Snow
12:36 PM 33.8 °F 27.0 °F 33.8 °F 100% 30.18 in 1.1 mi North 8.1 mph - N/A   Mostly Cloudy
12:37 PM 33.8 °F 27.0 °F 33.8 °F 100% 30.18 in 1.1 mi North 8.1 mph - N/A Snow Light Snow
12:47 PM 33.8 °F 27.0 °F 33.8 °F 100% 30.18 in 1.1 mi North 8.1 mph - N/A Snow Light Snow
1:00 PM 33 °F - 33 °F 100% 30.21 in 1 mi North 6.7 mph - - Snow Light Snow
1:14 PM 33.8 °F 27.0 °F 33.8 °F 100% 30.18 in 0.7 mi North 8.1 mph - N/A Snow Snow
2:25 PM 33.8 °F 27.0 °F 33.8 °F 100% 30.15 in 0.9 mi North 8.1 mph - N/A Snow Light Snow
2:37 PM 33.8 °F 27.7 °F 33.8 °F 100% 30.15 in 1.2 mi North 6.9 mph - N/A Snow Light Snow
3:10 PM 33.8 °F 26.4 °F 33.8 °F 100% 30.15 in 0.7 mi North 9.2 mph - N/A Snow Light Snow
3:25 PM 33.8 °F 27.7 °F 32.0 °F 93% 30.15 in 0.4 mi North 6.9 mph - N/A Snow Snow
4:00 PM 33 °F - 33 °F 98% 30.20 in 0 mi North 6.7 mph - - Snow Snow
4:25 PM 32.0 °F 25.6 °F 32.0 °F 100% 30.18 in 0.4 mi North 6.9 mph - N/A Snow Snow
5:25 PM 32.0 °F 26.4 °F 32.0 °F 100% 30.18 in 0.7 mi North 5.8 mph - N/A Snow Light Snow
5:51 PM 32.0 °F 25.6 °F 32.0 °F 100% 30.18 in 0.8 mi North 6.9 mph - N/A Snow Light Snow
6:25 PM 32.0 °F 25.6 °F 32.0 °F 100% 30.18 in 1.1 mi North 6.9 mph - N/A Snow Light Snow
7:00 PM 33 °F - 33 °F 97% 30.22 in 2 mi NNE 8.9 mph - - Snow Light Snow
7:01 PM 32.0 °F 24.8 °F 32.0 °F 100% 30.18 in 1.9 mi NNE 8.1 mph - N/A Snow Light Snow
7:25 PM 32.0 °F 24.2 °F 32.0 °F 100% 30.18 in 1.6 mi NNE 9.2 mph - N/A Snow Light Snow
7:30 PM 32.0 °F 24.2 °F 32.0 °F 100% 30.18 in 1.9 mi NNE 9.2 mph - N/A Snow Light Snow
8:25 PM 33.8 °F 25.3 °F 33.8 °F 100% 30.21 in - NE 11.5 mph - N/A Snow Light Snow
9:08 PM 33.8 °F 25.8 °F 33.8 °F 100% 30.21 in 0.9 mi NE 10.4 mph - N/A Snow Light Snow
9:25 PM 33.8 °F 26.4 °F 33.8 °F 100% 30.24 in 0.7 mi NE 9.2 mph - N/A Snow Light Snow
9:30 PM 33.8 °F 27.0 °F 33.8 °F 100% 30.24 in 0.6 mi NE 8.1 mph - N/A   Mist
10:00 PM 33 °F - 33 °F 100% 30.28 in 0 mi NE 8.9 mph - - Fog Fog
10:15 PM 33.8 °F 26.4 °F 33.8 °F 100% 30.24 in 0.7 mi NE 9.2 mph - N/A   Overcast
10:25 PM 33.8 °F 26.4 °F 33.8 °F 100% 30.24 in 0.7 mi NE 9.2 mph - N/A Rain Light Rain
10:45 PM 33.8 °F 27.0 °F 33.8 °F 100% 30.24 in 0.6 mi NE 8.1 mph - N/A Rain Light Rain Showers
10:54 PM 33.8 °F 27.0 °F 33.8 °F 100% 30.24 in 0.4 mi NE 8.1 mph - N/A Fog Fog
11:25 PM 33.8 °F 27.0 °F 33.8 °F 100% 30.24 in 0.2 mi NE 8.1 mph - N/A Fog , Rain Light Rain Showers
11:28 PM 33.8 °F 27.0 °F 33.8 °F 100% 30.24 in 0.2 mi NE 8.1 mph - N/A Fog , Snow Light Snow Showers